EW1336 Weather Reports


Display with metric or nautical units.
time (UTC)temp
F
wind
direction
speed
MPH
gust
MPH
rain 1hr
in
rain 24hr
in
rain mn
in
humidity
%
barometer
mb
20260509160042 55 269 0.0 3.0 0.00 0.00 0.00 34 1013.7
20260509154543 54 30 0.0 4.0 0.00 0.00 0.00 35 1013.7
20260509153038 53 284 0.0 1.0 0.00 0.00 0.00 38 1013.7
20260509151531 51 358 0.0 2.0 0.00 0.00 0.00 43 1013.9
20260509150029 50 194 0.0 0.0 0.00 0.00 0.00 49 1013.8
20260509144528 49 36 0.0 2.0 0.00 0.00 0.00 47 1013.8
20260509143024 47 49 0.0 2.0 0.00 0.00 0.00 51 1013.9
20260509141523 45 25 0.0 1.0 0.00 0.00 0.00 54 1013.8
20260509140017 45 97 0.0 1.0 0.00 0.00 0.00 58 1013.9
20260509134516 44 84 0.0 1.0 0.00 0.00 0.00 59 1013.8
20260509133019 44 63 0.0 1.0 0.00 0.00 0.00 57 1013.7
20260509131520 44 108 0.0 1.0 0.00 0.00 0.00 58 1013.6
20260509130014 44 47 0.0 0.0 0.00 0.00 0.00 56 1013.5
20260509124514 44 98 0.0 0.0 0.00 0.00 0.00 54 1013.6
20260509123013 44 49 0.0 1.0 0.00 0.00 0.00 54 1013.6
20260509121521 44 9 0.0 0.0 0.00 0.00 0.00 54 1013.7
20260509120013 45 360 0.0 0.0 0.00 0.00 0.00 55 1013.6
20260509114510 44 60 0.0 0.0 0.00 0.00 0.00 55 1013.6
20260509113008 44 71 0.0 1.0 0.00 0.00 0.00 58 1013.6
20260509111510 44 26 0.0 0.0 0.00 0.00 0.00 60 1013.6
20260509110007 44 341 0.0 1.0 0.00 0.00 0.00 61 1013.6
20260509104520 44 46 0.0 0.0 0.00 0.00 0.00 65 1013.6
20260509103005 44 67 0.0 1.0 0.00 0.00 0.00 65 1013.7
20260509101504 43 67 0.0 0.0 0.00 0.00 0.00 65 1013.8
20260509100004 43 67 0.0 0.0 0.00 0.00 0.00 66 1014.0
20260509094510 43 65 0.0 0.0 0.00 0.00 0.00 66 1013.9
20260509093100 43 49 0.0 0.0 0.00 0.00 0.00 63 1013.9
20260509091557 44 43 0.0 1.0 0.00 0.00 0.00 61 1013.9
20260509090104 44 336 0.0 0.0 0.00 0.00 0.00 59 1013.9
20260509084600 44 29 0.0 0.0 0.00 0.00 0.00 60 1014.1
20260509083054 44 29 0.0 0.0 0.00 0.00 0.00 60 1014.0
20260509081552 45 30 0.0 0.0 0.00 0.00 0.00 59 1014.1
20260509080057 44 30 0.0 0.0 0.00 0.00 0.00 59 1014.1
20260509074550 45 29 0.0 0.0 0.00 0.00 0.00 64 1014.1
20260509073052 45 57 0.0 0.0 0.00 0.00 0.00 64 1014.0
20260509071553 46 65 0.0 0.0 0.00 0.00 0.00 62 1014.2
20260509070043 46 64 0.0 0.0 0.00 0.00 0.00 62 1014.3
20260509064541 46 71 0.0 1.0 0.00 0.00 0.00 60 1014.1
20260509063041 46 235 0.0 0.0 0.00 0.00 0.00 59 1014.2
20260509061547 46 245 0.0 1.0 0.00 0.00 0.00 58 1014.4
20260509060039 46 215 0.0 0.0 0.00 0.00 0.00 58 1014.4
20260509054548 46 219 0.0 0.0 0.00 0.00 0.00 57 1014.5
20260509053038 46 200 0.0 1.0 0.00 0.00 0.00 56 1014.4
20260509051539 46 133 0.0 1.0 0.00 0.00 0.00 55 1014.3
20260509050049 47 280 0.0 0.0 0.00 0.00 0.00 57 1014.3
20260509044545 47 25 0.0 0.0 0.00 0.00 0.00 58 1014.2
20260509043035 48 25 0.0 0.0 0.00 0.00 0.00 58 1014.1
20260509041536 49 34 0.0 0.0 0.00 0.00 0.00 57 1013.9
20260509040037 49 54 0.0 0.0 0.00 0.00 0.00 57 1013.9
20260509034540 50 56 0.0 0.0 0.00 0.00 0.00 56 1013.7
20260509033034 51 53 0.0 0.0 0.00 0.00 0.00 53 1013.6
20260509031534 51 53 0.0 0.0 0.00 0.00 0.00 53 1013.6
20260509030034 52 54 0.0 0.0 0.00 0.00 0.00 52 1013.3
20260509024532 54 52 0.0 0.0 0.00 0.00 0.00 51 1013.3
20260509023035 55 53 0.0 0.0 0.00 0.00 0.00 49 1013.1
20260509021532 56 53 0.0 0.0 0.00 0.00 0.00 48 1013.2
20260509020031 57 280 0.0 0.0 0.00 0.00 0.00 45 1013.2
20260509014531 59 276 0.0 1.0 0.00 0.00 0.00 43 1013.0
20260509013038 60 248 0.0 1.0 0.00 0.00 0.00 39 1013.0
20260509011529 60 266 0.0 1.0 0.00 0.00 0.00 38 1012.9
20260509010028 61 266 0.0 1.0 0.00 0.00 0.00 36 1013.0
20260509004526 62 217 0.0 2.0 0.00 0.00 0.00 34 1013.0
20260509003025 62 257 0.0 1.0 0.00 0.00 0.00 32 1013.3
20260509001523 63 210 0.0 3.0 0.00 0.00 0.00 30 1013.3
20260509000022 65 255 0.0 2.0 0.00 0.00 0.00 29 1013.2
20260508234522 66 269 0.0 3.0 0.00 0.00 0.00 28 1013.2
20260508233019 66 245 0.0 2.0 0.00 0.00 0.00 27 1013.4
20260508231517 66 222 0.0 2.0 0.00 0.00 0.00 24 1013.5
20260508230036 65 269 0.0 4.0 0.00 0.00 0.00 23 1013.7
20260508224539 66 285 0.0 4.0 0.00 0.00 0.00 22 1013.8
20260508223024 66 266 1.0 4.0 0.00 0.00 0.00 22 1014.0
20260508221510 66 235 0.0 3.0 0.00 0.00 0.00 24 1014.0
20260508220009 66 279 0.0 4.0 0.00 0.00 0.00 21 1014.2
20260508214507 66 273 1.0 4.0 0.00 0.00 0.00 21 1014.3
20260508213007 66 257 0.0 3.0 0.00 0.00 0.00 21 1014.4
20260508211506 66 304 0.0 3.0 0.00 0.00 0.00 21 1014.4
20260508210003 66 174 1.0 4.0 0.00 0.00 0.00 21 1014.5
20260508204505 65 316 0.0 3.0 0.00 0.00 0.00 22 1014.5
20260508203116 65 212 0.0 3.0 0.00 0.00 0.00 22 1014.6
20260508201557 64 278 0.0 2.0 0.00 0.00 0.00 22 1014.9
20260508200056 63 266 0.0 4.0 0.00 0.00 0.00 23 1015.1
20260508194553 62 214 0.0 3.0 0.00 0.00 0.00 21 1015.2
20260508193120 61 120 0.0 2.0 0.00 0.00 0.00 26 1015.2
20260508191550 60 231 0.0 2.0 0.00 0.00 0.00 29 1015.3
20260508190047 58 235 0.0 1.0 0.00 0.00 0.00 28 1015.4
20260508184607 59 248 0.0 1.0 0.00 0.00 0.00 27 1015.5
20260508183045 59 225 0.0 1.0 0.00 0.00 0.00 26 1015.6
20260508181542 59 203 0.0 1.0 0.00 0.00 0.00 27 1015.6
20260508180043 59 222 0.0 1.0 0.00 0.00 0.00 28 1015.5
20260508174555 58 211 0.0 2.0 0.00 0.00 0.00 32 1015.4
20260508173034 56 234 0.0 2.0 0.00 0.00 0.00 35 1015.5
20260508171536 55 217 0.0 2.0 0.00 0.00 0.00 39 1015.5
20260508170028 53 252 0.0 2.0 0.00 0.00 0.00 42 1015.5
20260508164534 52 208 0.0 2.0 0.00 0.00 0.00 42 1015.5
20260508163028 51 235 0.0 0.0 0.00 0.00 0.00 42 1015.5
20260508161535 50 242 0.0 1.0 0.00 0.00 0.00 42 1015.7